カタログに戻る

MIDAS 4 DEB

LostPO
NORAD 42665·DEBRIS·🇺🇸 United States

打ち上げ Oct 21, 1961 から Vandenberg Space Force Base

Loading…

次のパス (今後24時間)

TLE

古いSource: Space-Track

元期: Aug 3, 2026, 11:41 UTC

1 42665U 61028L   26215.48738592 -.00000222  00000-0 -73753-1 0  9996
2 42665  95.8808 305.0886 0734853 354.0036   5.2397  8.70550187206009

AllMySatでMIDAS 4 DEBをリアルタイム追跡

Download on the App Store